This demonstration page uses our WeatherBlox Daily Observations layout. Learn more.

Left ArrowRight Arrow

44.8408, -93.29828

Hourly Observations for March 25, 2018

Temp ( °F °C ) Dew Point ( °F °C ) Humidity (%) Winds ( mph kmh ) Pressure ( in mb ) Visibility ( mi km ) Precip ( " mm )
12:53 am 00:53 Mostly Clear 32 0 18 -7.8 56 56 ESE 13 20 30.31 1026 10 16 0.00 0.00
1:53 am 01:53 Mostly Clear 31 -0.6 18 -7.8 59 59 SE 10 17 30.32 1027 10 16 0.00 0.00
2:53 am 02:53 Mostly Clear 30 -1.1 17 -8.3 58 58 ESE 13 20 30.32 1027 10 16 0.00 0.00
3:53 am 03:53 Cloudy 30 -1.1 17 -8.3 58 58 ESE 10 17 30.32 1027 10 16 0.00 0.00
4:53 am 04:53 Cloudy 30 -1.1 17 -8.3 58 58 ESE 13 20 30.30 1026 10 16 0.00 0.00
5:53 am 05:53 Cloudy 29 -1.7 17 -8.3 61 61 ESE 15 24 30.29 1026 10 16 0.00 0.00
6:53 am 06:53 Mostly Cloudy 29 -1.7 17 -8.3 61 61 ESE 14 22 30.29 1026 10 16 0.00 0.00
7:53 am 07:53 Mostly Cloudy 29 -1.7 17 -8.3 61 61 SE 13 20 30.29 1026 10 16 0.00 0.00
8:53 am 08:53 Mostly Cloudy 30 -1.1 15 -9.4 54 54 SE 14 22 30.31 1026 10 16 0.00 0.00
9:53 am 09:53 Mostly Cloudy 33 0.6 15 -9.4 47 47 SSE 15 24 30.31 1027 10 16 0.00 0.00
10:53 am 10:53 Mostly Cloudy 34 1.1 15 -9.4 46 46 SE 13 20 30.32 1027 10 16 0.00 0.00
11:53 am 11:53 Partly Cloudy 37 2.8 17 -8.3 44 44 SSE 17 28 30.32 1027 10 16 0.00 0.00
12:53 pm 12:53 Mostly Cloudy 38 3.3 17 -8.3 43 43 SSE 14 22 30.29 1026 10 16 0.00 0.00
1:53 pm 13:53 Mostly Cloudy 41 5 19 -7.2 41 41 SSE 18 30 30.26 1025 10 16 0.00 0.00
2:53 pm 14:53 Mostly Cloudy 42 5.6 17 -8.3 36 36 SE 14 22 30.24 1024 10 16 0.00 0.00
3:53 pm 15:53 Cloudy 43 6.1 18 -7.8 37 37 SE 17 28 30.22 1023 10 16 0.00 0.00
4:53 pm 16:53 Cloudy 42 5.6 18 -7.8 38 38 SE 15 24 30.21 1023 10 16 0.00 0.00
5:53 pm 17:53 Cloudy 42 5.6 19 -7.2 40 40 SE 12 19 30.19 1023 10 16 0.00 0.00
6:53 pm 18:53 Cloudy 42 5.6 20 -6.7 41 41 SSE 8 13 30.19 1023 10 16 0.00 0.00
7:53 pm 19:53 Cloudy 42 5.6 20 -6.7 41 41 SE 7 11 30.18 1022 10 16 0.00 0.00
8:53 pm 20:53 Cloudy 42 5.6 20 -6.7 41 41 VRB 5 7 30.19 1022 10 16 0.00 0.00
9:53 pm 21:53 Cloudy 41 5 21 -6.1 45 45 SSE 7 11 30.19 1022 10 16 0.00 0.00
10:53 pm 22:53 Cloudy 42 5.6 19 -7.2 40 40 SE 7 11 30.18 1022 10 16 0.00 0.00
11:53 pm 23:53 Cloudy 42 5.6 19 -7.2 40 40 SSE 13 20 30.19 1022 10 16 0.00 0.00

Powered by AerisWeather